GW1540 Weather Reports


time (UTC)temp
C
wind
direction
speed
KPH
gust
KPH
rain 1hr
cm
rain 24hr
cm
rain mn
cm
humidity
%
barometer
mb
20260904214607 12 206 0.0 0.0 0.00 0.00 0.00 92 1018.9
20260904213047 13 206 0.0 0.0 0.00 0.00 0.00 90 1018.8
20260904210046 14 206 0.0 0.0 0.00 0.00 0.00 91 1019.0
20260904203059 15 206 0.0 0.0 0.00 0.00 0.00 90 1019.0
20260904201557 16 206 0.0 3.2 0.00 0.00 0.00 88 1019.1
20260904200048 16 206 0.0 0.0 0.00 0.00 0.00 88 1019.3
20260904193108 17 206 1.6 4.8 0.00 0.00 0.00 89 1019.4
20260904191617 17 206 3.2 6.4 0.00 0.00 0.00 89 1019.3
20260904184602 17 206 3.2 4.8 0.00 0.00 0.00 86 1019.2
20260904181602 18 206 1.6 4.8 0.00 0.00 0.00 83 1019.0
20260904180044 18 206 1.6 6.4 0.00 0.00 0.00 81 1019.0
20260904173050 18 206 1.6 4.8 0.00 0.00 0.00 80 1019.0
20260904170051 20 202 3.2 6.4 0.00 0.00 0.00 75 1019.1
20260904163059 21 219 1.6 6.4 0.00 0.00 0.00 72 1019.1
20260904161550 23 194 1.6 6.4 0.00 0.00 0.00 66 1019.0
20260904154543 25 234 1.6 8.0 0.00 0.00 0.00 56 1018.9
20260904151608 25 253 1.6 6.4 0.00 0.00 0.00 54 1019.3
20260904143122 25 338 1.6 9.7 0.00 0.00 0.00 55 1019.7
20260904141555 25 217 3.2 11.3 0.00 0.00 0.00 55 1019.6
20260904140043 25 66 0.0 14.5 0.00 0.00 0.00 57 1019.7
20260904134541 25 61 3.2 14.5 0.00 0.00 0.00 56 1019.9
20260904131613 25 211 3.2 12.9 0.00 0.00 0.00 60 1020.3
20260904124551 25 142 4.8 16.1 0.00 0.00 0.00 61 1020.5
20260904121608 25 320 4.8 9.7 0.00 0.00 0.00 64 1020.4
20260904114601 24 252 6.4 16.1 0.00 0.00 0.00 62 1020.7
20260904111556 25 264 3.2 12.9 0.00 0.00 0.00 65 1020.9
20260904104618 24 84 3.2 11.3 0.00 0.00 0.00 62 1020.9
20260904103057 24 163 1.6 9.7 0.00 0.00 0.00 63 1020.9
20260904101547 24 209 1.6 11.3 0.00 0.00 0.00 61 1021.0
20260904094600 24 187 3.2 9.7 0.00 0.00 0.00 64 1020.9
20260904091605 24 276 1.6 8.0 0.00 0.00 0.00 59 1020.9
20260904090041 23 282 1.6 4.8 0.00 0.00 0.00 61 1020.8
20260904083049 22 84 1.6 6.4 0.00 0.00 0.00 73 1020.9
20260904081549 21 152 0.0 3.2 0.00 0.00 0.00 78 1021.1
20260904074629 18 152 0.0 3.2 0.00 0.00 0.00 84 1021.0
20260904073054 17 152 0.0 3.2 0.00 0.00 0.00 88 1021.1
20260904070052 15 152 1.6 3.2 0.00 0.00 0.00 92 1020.9
20260904063105 13 152 0.0 4.8 0.00 0.03 0.00 96 1021.1
20260904060127 11 69 0.0 0.0 0.00 0.03 0.00 95 1021.1
20260904053058 10 69 0.0 3.2 0.00 0.03 0.00 94 1021.0
20260904050104 10 69 0.0 0.0 0.00 0.03 0.00 93 1021.2
20260904044559 10 69 0.0 0.0 0.00 0.03 0.00 92 1021.2
20260904043100 11 69 0.0 0.0 0.00 0.03 0.00 93 1021.0
20260904041547 11 69 0.0 3.2 0.00 0.03 0.00 94 1020.9
20260904034605 11 209 0.0 3.2 0.00 0.03 0.00 94 1020.9
20260904031603 11 210 0.0 1.6 0.00 0.03 0.00 93 1020.7
20260904030046 11 210 0.0 3.2 0.00 0.03 0.00 93 1020.6
20260904024546 11 210 1.6 4.8 0.00 0.03 0.00 94 1020.7
20260904023037 11 210 0.0 3.2 0.00 0.03 0.00 94 1020.8
20260904020056 11 210 0.0 3.2 0.00 0.03 0.00 93 1021.0
20260904013051 11 210 0.0 3.2 0.00 0.03 0.00 93 1020.7
20260904011541 11 210 0.0 3.2 0.00 0.03 0.00 93 1020.7
20260904004608 12 209 0.0 4.8 0.00 0.03 0.00 93 1020.9
20260904003052 12 210 0.0 3.2 0.00 0.03 0.00 95 1021.0
20260904001541 11 240 0.0 0.0 0.00 0.03 0.00 93 1021.0
20260903234553 11 240 0.0 0.0 0.00 0.03 0.00 92 1021.0
20260903233042 12 240 0.0 0.0 0.00 0.03 0.00 93 1021.0
20260903230110 11 240 0.0 0.0 0.00 0.03 0.00 93 1021.1
20260903224556 11 240 0.0 0.0 0.00 0.03 0.00 93 1021.1
20260903223039 11 240 0.0 0.0 0.00 0.03 0.00 92 1021.2
20260903220407 12 240 0.0 0.0 0.00 0.03 0.00 92 1021.1